Weather History for West Palm Beach, FL

Change the Weather History Date:

Friday, November 1, 2013

  Actual Average Record
Temperature  
Mean Temperature 83 °F 75 °F  
Max Temperature 88 °F 82 °F 90 °F (1900)
Min Temperature 77 °F 68 °F 45 °F (1993)
Degree Days  
Heating Degree Days 0 0  
Month to date heating degree days 0 0  
Since 1 July heating degree days 0 1  
Cooling Degree Days 18 10  
Month to date cooling degree days 18 10  
Year to date cooling degree days 3866 3631  
Growing Degree Days 33 (Base 50)    
Moisture  
Dew Point 70 °F    
Average Humidity 65    
Maximum Humidity 74    
Minimum Humidity 55    
Precipitation  
Precipitation 0.00 in 0.17 in 5.89 in (1982)
Month to date precipitation 0.00 0.17  
Year to date precipitation 57.86 54.37  
Snow  
Snow 0.00 in - - ()
Month to date snowfall 0.0  
Since 1 July snowfall 0.0  
Since 1 September snowfall 0.0  
Snow Depth 0.00 in    
Sea Level Pressure  
Sea Level Pressure 29.95 in    
Wind  
Wind Speed 9 mph (SSE)    
Max Wind Speed 18 mph    
Max Gust Speed 25 mph    
Visibility 10 miles    
Events      
T = Trace of Precipitation, MM = Missing Value Source: NWS Daily Summary

Daily Weather History Graph

Daily Weather History Graph

Search for Another Location

Airport:

Trip Planner

Search our weather history database for the weather conditions in past years. The results will help you decide how hot, cold, wet, or windy it might be!

Date:

Astronomy

Nov. 01, 2013 Rise Set
Actual Time 7:30 AM EDT 6:37 PM EDT
Civil Twilight 7:06 AM EDT 7:01 PM EDT
Nautical Twilight 6:38 AM EDT 7:28 PM EDT
Astronomical Twilight 6:11 AM EDT 7:56 PM EDT
Moon 5:30 AM EDT (11/1) 5:21 PM EDT (11/1)
Length of Visible Light 11h 55m
Length of Day
11h 07m
Waning Crescent, 4% of the Moon is Illuminated
Nov 1
Waning Crescent
Nov 3
New
Nov 10
First Quarter
Nov 17
Full
Nov 25
Last Quarter

Hourly Weather History & Observations

Time (EDT) Temp. Heat Index Dew Point Humidity Pressure Visibility Wind Dir Wind Speed Gust Speed Precip Events Conditions
12:53 AM 80.1 °F 83.6 °F 71.1 °F 74% 30.01 in 10.0 mi SE 6.9 mph - N/A   Mostly Cloudy
1:53 AM 80.1 °F 82.9 °F 69.1 °F 69% 29.99 in 10.0 mi SSE 8.1 mph - N/A   Scattered Clouds
2:53 AM 80.1 °F 83.2 °F 70.0 °F 71% 29.97 in 10.0 mi SSE 8.1 mph - N/A   Scattered Clouds
3:53 AM 80.1 °F 83.2 °F 70.0 °F 71% 29.96 in 10.0 mi SSE 9.2 mph - N/A   Scattered Clouds
4:53 AM 79.0 °F - 70.0 °F 74% 29.96 in 10.0 mi SSE 8.1 mph - N/A   Partly Cloudy
5:53 AM 79.0 °F - 70.0 °F 74% 29.97 in 10.0 mi SSE 6.9 mph - N/A   Scattered Clouds
6:53 AM 79.0 °F - 70.0 °F 74% 29.97 in 10.0 mi SSE 5.8 mph - N/A   Scattered Clouds
7:53 AM 78.1 °F - 70.0 °F 76% 29.99 in 10.0 mi South 3.5 mph - N/A   Scattered Clouds
8:53 AM 82.0 °F 86.3 °F 71.1 °F 69% 30.01 in 10.0 mi South 5.8 mph - N/A   Scattered Clouds
9:53 AM 84.0 °F 87.8 °F 69.1 °F 61% 30.01 in 10.0 mi South 8.1 mph - N/A   Scattered Clouds
10:53 AM 86.0 °F 90.7 °F 70.0 °F 59% 30.00 in 10.0 mi SSE 12.7 mph - N/A   Scattered Clouds
11:53 AM 84.9 °F 90.1 °F 71.1 °F 63% 29.99 in 10.0 mi SSE 13.8 mph 21.9 mph N/A   Mostly Cloudy
12:53 PM 84.9 °F 90.1 °F 71.1 °F 63% 29.96 in 10.0 mi SE 13.8 mph - N/A   Mostly Cloudy
1:53 PM 88.0 °F 93.8 °F 71.1 °F 57% 29.93 in 10.0 mi SE 13.8 mph - N/A   Mostly Cloudy
2:53 PM 88.0 °F 92.9 °F 70.0 °F 55% 29.91 in 10.0 mi SSE 12.7 mph - N/A   Scattered Clouds
3:53 PM 86.0 °F 91.5 °F 71.1 °F 61% 29.90 in 10.0 mi SE 16.1 mph - N/A   Scattered Clouds
4:53 PM 86.0 °F 91.5 °F 71.1 °F 61% 29.89 in 10.0 mi SSE 12.7 mph - N/A   Scattered Clouds
5:53 PM 84.0 °F 89.0 °F 71.1 °F 65% 29.89 in 10.0 mi SSE 11.5 mph - N/A   Scattered Clouds
6:53 PM 82.0 °F 86.3 °F 71.1 °F 69% 29.91 in 10.0 mi SSE 9.2 mph - N/A   Scattered Clouds
7:53 PM 81.0 °F 85.2 °F 72.0 °F 74% 29.92 in 10.0 mi SSE 11.5 mph - N/A   Scattered Clouds
8:53 PM 81.0 °F 84.9 °F 71.1 °F 72% 29.93 in 10.0 mi SSE 6.9 mph - N/A   Scattered Clouds
9:53 PM 80.1 °F 83.2 °F 70.0 °F 71% 29.93 in 10.0 mi South 8.1 mph - N/A   Partly Cloudy
10:53 PM 80.1 °F 83.2 °F 70.0 °F 71% 29.94 in 10.0 mi South 8.1 mph - N/A   Partly Cloudy
11:53 PM 79.0 °F - 70.0 °F 74% 29.94 in 10.0 mi South 5.8 mph - N/A   Scattered Clouds